SVA1440 HECA-OERK

Flight info

Callsign SVA1440
Flight time 2h 35m
Altitude 29000
Route CVO L677 MENLI N697 SISIK W976 TAKSU L550 KARIK B411 DEESA Y415 NIMAR G662 KUNEK
Aircraft F28/M-SDFIRWY/H

Departure

Time 2026-04-29 23:04
Airport Cairo International Airport (HECA)

Arrival

Time 2026-04-30 01:39
Airport King Khalid International Airport (OERK)
Time Latitude Longitude Altitude Speed Heading
2026-04-29 22:36 30.10669 31.39356 372 ft 0 kts 256°
2026-04-29 22:48 30.10670 31.39361 372 ft 2 kts 256°
2026-04-29 22:48 30.10674 31.39380 372 ft 2 kts 256°
2026-04-29 22:48 30.10678 31.39398 372 ft 2 kts 256°
2026-04-29 22:48 30.10682 31.39415 372 ft 2 kts 256°
2026-04-29 22:49 30.10686 31.39433 372 ft 2 kts 248°
2026-04-29 22:49 30.10698 31.39443 372 ft 2 kts 198°
2026-04-29 22:49 30.10713 31.39449 372 ft 2 kts 194°
2026-04-29 22:49 30.10721 31.39450 372 ft 0 kts 185°
2026-04-29 22:51 30.10720 31.39450 372 ft 1 kts 182°
2026-04-29 22:51 30.10704 31.39454 372 ft 3 kts 168°
2026-04-29 22:52 30.10675 31.39461 371 ft 5 kts 168°
2026-04-29 22:52 30.10635 31.39473 372 ft 4 kts 149°
2026-04-29 22:52 30.10613 31.39503 371 ft 6 kts 118°
2026-04-29 22:52 30.10610 31.39554 371 ft 7 kts 78°
2026-04-29 22:53 30.10624 31.39617 371 ft 9 kts 75°
2026-04-29 22:53 30.10640 31.39692 371 ft 8 kts 85°
2026-04-29 22:53 30.10605 31.39726 371 ft 8 kts 162°
2026-04-29 22:53 30.10566 31.39738 371 ft 5 kts 167°
2026-04-29 22:54 30.10522 31.39750 371 ft 7 kts 167°
2026-04-29 22:54 30.10466 31.39765 371 ft 9 kts 164°
2026-04-29 22:54 30.10420 31.39780 371 ft 6 kts 164°
2026-04-29 22:54 30.10371 31.39787 371 ft 8 kts 189°
2026-04-29 22:55 30.10326 31.39747 371 ft 8 kts 228°
2026-04-29 22:55 30.10286 31.39695 371 ft 9 kts 228°
2026-04-29 22:55 30.10239 31.39635 371 ft 11 kts 228°
2026-04-29 22:55 30.10188 31.39577 371 ft 11 kts 209°
2026-04-29 22:56 30.10126 31.39600 371 ft 7 kts 109°
2026-04-29 22:56 30.10143 31.39660 371 ft 8 kts 50°
2026-04-29 22:56 30.10186 31.39718 371 ft 10 kts 48°
2026-04-29 22:56 30.10237 31.39785 371 ft 12 kts 49°
2026-04-29 22:57 30.10298 31.39862 371 ft 13 kts 47°
2026-04-29 22:57 30.10362 31.39948 371 ft 15 kts 50°
2026-04-29 22:57 30.10423 31.40041 371 ft 14 kts 66°
2026-04-29 22:57 30.10404 31.40144 371 ft 15 kts 137°
2026-04-29 22:58 30.10322 31.40229 371 ft 16 kts 138°
2026-04-29 22:58 30.10231 31.40318 371 ft 18 kts 141°
2026-04-29 22:58 30.10133 31.40415 371 ft 19 kts 139°
2026-04-29 22:58 30.10030 31.40517 371 ft 21 kts 139°
2026-04-29 22:59 30.09923 31.40621 371 ft 22 kts 140°
2026-04-29 22:59 30.09823 31.40721 372 ft 17 kts 137°
2026-04-29 22:59 30.09787 31.40840 372 ft 17 kts 78°
2026-04-29 22:59 30.09810 31.40979 372 ft 18 kts 79°
2026-04-29 23:00 30.09835 31.41127 372 ft 20 kts 79°
2026-04-29 23:00 30.09861 31.41290 372 ft 21 kts 80°
2026-04-29 23:00 30.09888 31.41462 372 ft 20 kts 79°
2026-04-29 23:00 30.09912 31.41606 372 ft 17 kts 80°
2026-04-29 23:01 30.09916 31.41707 372 ft 10 kts 102°
2026-04-29 23:01 30.09873 31.41764 372 ft 10 kts 139°
2026-04-29 23:01 30.09814 31.41823 372 ft 12 kts 139°
2026-04-29 23:01 30.09756 31.41888 372 ft 7 kts 111°
2026-04-29 23:02 30.09754 31.41897 372 ft 0 kts 99°
2026-04-29 23:03 30.09752 31.41906 372 ft 4 kts 98°
2026-04-29 23:03 30.09753 31.41939 372 ft 6 kts 79°
2026-04-29 23:03 30.09840 31.42079 372 ft 47 kts 49°
2026-04-29 23:03 30.10190 31.42537 372 ft 104 kts 46°
2026-04-29 23:04 30.10754 31.43300 406 ft 140 kts 46°
2026-04-29 23:04 30.11421 31.44215 617 ft 158 kts 49°
2026-04-29 23:04 30.12128 31.45250 1097 ft 167 kts 51°
2026-04-29 23:04 30.12800 31.46286 1741 ft 160 kts 48°
2026-04-29 23:05 30.13496 31.47345 2192 ft 174 kts 52°
2026-04-29 23:05 30.14306 31.48564 2244 ft 207 kts 50°
2026-04-29 23:05 30.15237 31.49946 2257 ft 232 kts 50°
2026-04-29 23:05 30.16269 31.51473 2286 ft 245 kts 49°
2026-04-29 23:06 30.17327 31.53034 2315 ft 245 kts 49°
2026-04-29 23:06 30.18379 31.54587 2300 ft 245 kts 50°
2026-04-29 23:06 30.19469 31.56182 2319 ft 256 kts 50°
2026-04-29 23:06 30.20555 31.57779 2602 ft 254 kts 50°
2026-04-29 23:07 30.21653 31.59388 2904 ft 253 kts 50°
2026-04-29 23:07 30.22741 31.60989 3192 ft 252 kts 50°
2026-04-29 23:07 30.23827 31.62595 3482 ft 253 kts 50°
2026-04-29 23:07 30.24903 31.64183 3789 ft 253 kts 50°
2026-04-29 23:08 30.25991 31.65791 4096 ft 253 kts 49°
2026-04-29 23:08 30.27076 31.67392 4393 ft 253 kts 49°
2026-04-29 23:08 30.28165 31.68998 4692 ft 253 kts 50°
2026-04-29 23:08 30.29251 31.70597 4979 ft 252 kts 50°
2026-04-29 23:09 30.30332 31.72195 5288 ft 252 kts 49°
2026-04-29 23:09 30.31397 31.73774 5574 ft 251 kts 51°
2026-04-29 23:09 30.32471 31.75364 5876 ft 250 kts 50°
2026-04-29 23:09 30.33544 31.76952 6172 ft 250 kts 50°
2026-04-29 23:10 30.34613 31.78536 6530 ft 248 kts 50°
2026-04-29 23:10 30.35659 31.80087 6908 ft 246 kts 50°
2026-04-29 23:10 30.36708 31.81650 7295 ft 245 kts 50°
2026-04-29 23:10 30.37548 31.83361 7676 ft 248 kts 75°
2026-04-29 23:11 30.37543 31.85345 8079 ft 249 kts 107°
2026-04-29 23:11 30.36666 31.87041 8507 ft 246 kts 138°
2026-04-29 23:11 30.35361 31.88287 8940 ft 246 kts 144°
2026-04-29 23:11 30.33977 31.89453 9361 ft 245 kts 146°
2026-04-29 23:12 30.32577 31.90588 9782 ft 245 kts 147°
2026-04-29 23:12 30.31170 31.91707 10167 ft 245 kts 147°
2026-04-29 23:12 30.29764 31.92815 10530 ft 245 kts 147°
2026-04-29 23:12 30.28363 31.93915 10914 ft 245 kts 148°
2026-04-29 23:13 30.26949 31.95021 11298 ft 245 kts 147°
2026-04-29 23:13 30.25529 31.96130 11684 ft 246 kts 147°
2026-04-29 23:13 30.24111 31.97246 12074 ft 246 kts 147°
2026-04-29 23:13 30.22698 31.98375 12473 ft 246 kts 147°
2026-04-29 23:14 30.21765 31.99126 12740 ft 246 kts 147°
2026-04-29 23:14 30.19898 32.00639 13270 ft 248 kts 147°
2026-04-29 23:14 30.18487 32.01786 13692 ft 248 kts 147°
2026-04-29 23:14 30.17071 32.02937 14067 ft 249 kts 147°
2026-04-29 23:15 30.16135 32.03699 14313 ft 249 kts 147°
2026-04-29 23:15 30.14722 32.04852 14677 ft 249 kts 147°
2026-04-29 23:15 30.13307 32.06015 15062 ft 249 kts 146°
2026-04-29 23:15 30.11900 32.07197 15440 ft 249 kts 146°
2026-04-29 23:16 30.10501 32.08387 15834 ft 249 kts 146°
2026-04-29 23:16 30.09108 32.09581 16236 ft 250 kts 146°
2026-04-29 23:16 30.07726 32.10768 16572 ft 251 kts 146°
2026-04-29 23:16 30.06318 32.11981 16884 ft 253 kts 146°
2026-04-29 23:17 30.04900 32.13205 17168 ft 255 kts 146°
2026-04-29 23:17 30.03476 32.14443 17427 ft 257 kts 145°
2026-04-29 23:17 30.02051 32.15703 17677 ft 258 kts 145°
2026-04-29 23:17 30.00624 32.16974 17909 ft 260 kts 144°
2026-04-29 23:18 29.99188 32.18258 18120 ft 261 kts 144°
2026-04-29 23:18 29.97754 32.19558 18302 ft 263 kts 144°
2026-04-29 23:18 29.96341 32.20858 18451 ft 264 kts 143°
2026-04-29 23:18 29.94905 32.22187 18586 ft 265 kts 144°
2026-04-29 23:19 29.93463 32.23530 18718 ft 266 kts 143°
2026-04-29 23:19 29.92014 32.24872 18834 ft 267 kts 146°
2026-04-29 23:19 29.90533 32.26183 18940 ft 268 kts 145°
2026-04-29 23:19 29.89094 32.27538 19015 ft 271 kts 142°
2026-04-29 23:20 29.87697 32.29008 19111 ft 272 kts 138°
2026-04-29 23:20 29.86363 32.30572 19197 ft 275 kts 135°
2026-04-29 23:20 29.85079 32.32208 19511 ft 276 kts 133°
2026-04-29 23:20 29.83828 32.33902 19762 ft 279 kts 131°
2026-04-29 23:21 29.82594 32.35641 19974 ft 281 kts 130°
2026-04-29 23:21 29.81368 32.37414 20173 ft 284 kts 130°
2026-04-29 23:21 29.80143 32.39209 20369 ft 285 kts 130°
2026-04-29 23:21 29.78919 32.41017 20543 ft 287 kts 130°
2026-04-29 23:22 29.77694 32.42822 20706 ft 289 kts 130°
2026-04-29 23:22 29.76440 32.44650 20886 ft 291 kts 130°
2026-04-29 23:22 29.75190 32.46465 21062 ft 292 kts 130°
2026-04-29 23:22 29.73919 32.48309 21237 ft 294 kts 130°
2026-04-29 23:23 29.72640 32.50167 21415 ft 296 kts 130°
2026-04-29 23:23 29.71360 32.52030 21590 ft 297 kts 130°
2026-04-29 23:23 29.70075 32.53907 21771 ft 299 kts 130°
2026-04-29 23:23 29.68798 32.55769 21956 ft 300 kts 131°
2026-04-29 23:24 29.67484 32.57662 22138 ft 302 kts 131°
2026-04-29 23:24 29.66162 32.59559 22323 ft 304 kts 131°
2026-04-29 23:24 29.64835 32.61462 22505 ft 306 kts 131°
2026-04-29 23:24 29.63514 32.63360 22688 ft 307 kts 131°
2026-04-29 23:25 29.62174 32.65293 22870 ft 309 kts 131°
2026-04-29 23:25 29.61010 32.67380 23029 ft 313 kts 109°
2026-04-29 23:25 29.60470 32.69624 23205 ft 312 kts 96°
2026-04-29 23:25 29.60210 32.72061 23386 ft 311 kts 89°
2026-04-29 23:26 29.60118 32.74554 23570 ft 312 kts 85°
2026-04-29 23:26 29.60117 32.77057 23747 ft 312 kts 83°
2026-04-29 23:26 29.60156 32.79550 23933 ft 312 kts 82°
2026-04-29 23:26 29.60209 32.82049 24114 ft 312 kts 82°
2026-04-29 23:27 29.60266 32.84532 24291 ft 313 kts 82°
2026-04-29 23:27 29.60327 32.87038 24479 ft 314 kts 82°
2026-04-29 23:27 29.60375 32.89553 24669 ft 315 kts 82°
2026-04-29 23:27 29.60413 32.92076 24869 ft 315 kts 82°
2026-04-29 23:28 29.60450 32.94606 25060 ft 316 kts 83°
2026-04-29 23:28 29.60477 32.97100 25239 ft 317 kts 83°
2026-04-29 23:28 29.60489 32.99644 25435 ft 318 kts 83°
2026-04-29 23:28 29.60502 33.02187 25631 ft 319 kts 83°
2026-04-29 23:29 29.60526 33.04746 25828 ft 319 kts 83°
2026-04-29 23:29 29.60544 33.07299 26030 ft 321 kts 83°
2026-04-29 23:29 29.60558 33.09873 26210 ft 322 kts 83°
2026-04-29 23:29 29.60583 33.12455 26395 ft 323 kts 83°
2026-04-29 23:30 29.60610 33.15043 26580 ft 324 kts 83°
2026-04-29 23:30 29.60626 33.17606 26797 ft 324 kts 83°
2026-04-29 23:30 29.60642 33.20195 27025 ft 323 kts 83°
2026-04-29 23:30 29.60657 33.22783 27211 ft 324 kts 83°
2026-04-29 23:31 29.60672 33.25377 27403 ft 325 kts 84°
2026-04-29 23:31 29.60687 33.27988 27597 ft 326 kts 84°
2026-04-29 23:31 29.60702 33.30612 27789 ft 327 kts 84°
2026-04-29 23:31 29.60715 33.33201 28014 ft 328 kts 83°
2026-04-29 23:32 29.60726 33.35834 28181 ft 329 kts 83°
2026-04-29 23:32 29.60740 33.38465 28358 ft 330 kts 84°
2026-04-29 23:32 29.60754 33.41114 28531 ft 331 kts 84°
2026-04-29 23:32 29.60769 33.43761 28709 ft 332 kts 84°
2026-04-29 23:33 29.60783 33.46383 28879 ft 333 kts 84°
2026-04-29 23:33 29.60800 33.49067 28936 ft 338 kts 84°
2026-04-29 23:33 29.60841 33.54601 28956 ft 354 kts 84°
2026-04-29 23:34 29.60856 33.60402 28966 ft 370 kts 84°
2026-04-29 23:34 29.60880 33.66416 28965 ft 386 kts 84°
2026-04-29 23:35 29.60887 33.72731 28965 ft 403 kts 85°
2026-04-29 23:35 29.60888 33.79301 28957 ft 419 kts 85°
2026-04-29 23:36 29.60891 33.86112 28950 ft 433 kts 86°
2026-04-29 23:36 29.60848 33.93051 28930 ft 447 kts 86°
2026-04-29 23:37 29.60801 34.00294 28932 ft 458 kts 86°
2026-04-29 23:37 29.60803 34.07709 28930 ft 468 kts 86°
2026-04-29 23:38 29.60788 34.15283 28947 ft 477 kts 86°
2026-04-29 23:38 29.60773 34.22951 28930 ft 486 kts 87°
2026-04-29 23:39 29.60776 34.30788 28923 ft 493 kts 86°
2026-04-29 23:39 29.60791 34.38667 28915 ft 499 kts 86°
2026-04-29 23:40 29.60810 34.46694 28906 ft 504 kts 86°
2026-04-29 23:40 29.60648 34.54735 28898 ft 509 kts 93°
2026-04-29 23:41 29.59972 34.58695 28892 ft 502 kts 108°
2026-04-29 23:41 29.58469 34.62269 28892 ft 492 kts 125°
2026-04-29 23:41 29.56276 34.65228 28897 ft 482 kts 140°
2026-04-29 23:41 29.53749 34.67723 28901 ft 475 kts 145°
2026-04-29 23:42 29.48591 34.72306 28900 ft 467 kts 145°
2026-04-29 23:42 29.46260 34.74910 28879 ft 469 kts 130°
2026-04-29 23:42 29.44595 34.78119 28883 ft 468 kts 114°
2026-04-29 23:43 29.43550 34.81643 28883 ft 464 kts 103°
2026-04-29 23:43 29.42893 34.85212 28884 ft 459 kts 98°
2026-04-29 23:43 29.42002 34.92443 28881 ft 453 kts 94°
2026-04-29 23:44 29.42179 34.99520 28873 ft 441 kts 75°
2026-04-29 23:44 29.43554 35.06360 28774 ft 441 kts 77°
2026-04-29 23:45 29.43733 35.09906 28457 ft 452 kts 91°
2026-04-29 23:45 29.43100 35.13485 27596 ft 474 kts 110°
2026-04-29 23:45 29.41535 35.16889 26622 ft 492 kts 126°
2026-04-29 23:45 29.39764 35.20324 25856 ft 506 kts 111°
2026-04-29 23:46 29.38878 35.24120 25930 ft 495 kts 96°
2026-04-29 23:46 29.38887 35.28007 25958 ft 482 kts 79°
2026-04-29 23:46 29.39224 35.31803 25970 ft 477 kts 89°
2026-04-29 23:46 29.38708 35.35543 25986 ft 474 kts 107°
2026-04-29 23:47 29.37335 35.38950 26001 ft 466 kts 123°
2026-04-29 23:47 29.35640 35.42093 26027 ft 461 kts 122°
2026-04-29 23:47 29.34108 35.45269 26036 ft 458 kts 117°
2026-04-29 23:47 29.32819 35.48600 26047 ft 455 kts 112°
2026-04-29 23:48 29.31737 35.51993 26043 ft 451 kts 109°
2026-04-29 23:48 29.30770 35.55408 26030 ft 448 kts 108°
2026-04-29 23:48 29.29847 35.58815 25950 ft 447 kts 107°
2026-04-29 23:48 29.28939 35.62227 26065 ft 440 kts 107°
2026-04-29 23:49 29.28066 35.65490 26494 ft 425 kts 107°
2026-04-29 23:49 29.27196 35.68677 26930 ft 412 kts 108°
2026-04-29 23:49 29.26348 35.71764 27374 ft 398 kts 108°
2026-04-29 23:49 29.25531 35.74715 27801 ft 385 kts 108°
2026-04-29 23:50 29.24721 35.77588 28229 ft 372 kts 108°
2026-04-29 23:50 29.23936 35.80357 28665 ft 359 kts 108°
2026-04-29 23:50 29.22403 35.85747 28905 ft 355 kts 109°
2026-04-29 23:51 29.21637 35.88438 28931 ft 356 kts 109°
2026-04-29 23:51 29.20079 35.93896 28937 ft 368 kts 109°
2026-04-29 23:52 29.18449 35.99590 28952 ft 384 kts 109°
2026-04-29 23:52 29.16759 36.05500 28969 ft 401 kts 109°
2026-04-29 23:53 29.14981 36.11714 28956 ft 418 kts 109°
2026-04-29 23:53 29.13179 36.18140 28951 ft 433 kts 108°
2026-04-29 23:54 29.11280 36.24818 28954 ft 448 kts 109°
2026-04-29 23:54 29.09341 36.31664 28949 ft 460 kts 109°
2026-04-29 23:55 29.07324 36.38712 28946 ft 471 kts 109°
2026-04-29 23:55 29.05236 36.45907 28949 ft 481 kts 109°
2026-04-29 23:56 29.03145 36.53255 28952 ft 489 kts 109°
2026-04-29 23:56 29.00980 36.60656 28951 ft 497 kts 109°
2026-04-29 23:57 28.98796 36.68202 28969 ft 503 kts 109°
2026-04-29 23:57 28.96594 36.75808 28968 ft 509 kts 109°
2026-04-29 23:58 28.94330 36.83530 28962 ft 513 kts 109°
2026-04-29 23:58 28.92064 36.91248 28964 ft 517 kts 109°
2026-04-29 23:59 28.89792 36.99049 28971 ft 519 kts 109°
2026-04-29 23:59 28.87520 37.06890 28971 ft 516 kts 109°
2026-04-30 00:00 28.85285 37.14585 28975 ft 501 kts 109°
2026-04-30 00:00 28.83108 37.21960 28960 ft 485 kts 110°
2026-04-30 00:01 28.81309 37.27945 28961 ft 473 kts 110°
2026-04-30 00:01 28.79218 37.34936 28963 ft 461 kts 110°
2026-04-30 00:02 28.77203 37.41812 28965 ft 451 kts 110°
2026-04-30 00:02 28.75218 37.48511 28960 ft 445 kts 110°
2026-04-30 00:03 28.73246 37.55194 28967 ft 443 kts 110°
2026-04-30 00:03 28.71301 37.61792 28969 ft 440 kts 110°
2026-04-30 00:04 28.69306 37.68407 28976 ft 438 kts 111°
2026-04-30 00:04 28.67341 37.74937 28969 ft 437 kts 111°
2026-04-30 00:05 28.65346 37.81539 28989 ft 445 kts 111°
2026-04-30 00:05 28.63309 37.88271 28993 ft 458 kts 111°
2026-04-30 00:06 28.61231 37.95267 29001 ft 470 kts 111°
2026-04-30 00:06 28.59090 38.02355 28992 ft 480 kts 111°
2026-04-30 00:07 28.56886 38.09629 28993 ft 489 kts 111°
2026-04-30 00:07 28.54646 38.16994 28992 ft 496 kts 111°
2026-04-30 00:08 28.52381 38.24464 28989 ft 503 kts 111°
2026-04-30 00:08 28.50111 38.32004 28989 ft 508 kts 111°
2026-04-30 00:09 28.47815 38.39621 28986 ft 504 kts 112°
2026-04-30 00:09 28.45515 38.47024 28978 ft 496 kts 112°
2026-04-30 00:10 28.43269 38.54411 28970 ft 489 kts 111°
2026-04-30 00:10 28.41037 38.61625 28974 ft 483 kts 112°
2026-04-30 00:11 28.38797 38.68807 28976 ft 478 kts 112°
2026-04-30 00:11 28.36610 38.75856 28977 ft 473 kts 112°
2026-04-30 00:12 28.34435 38.82887 28979 ft 470 kts 112°
2026-04-30 00:12 28.32286 38.89843 28970 ft 467 kts 112°
2026-04-30 00:13 28.30168 38.96795 28984 ft 464 kts 112°
2026-04-30 00:13 28.28030 39.03695 28989 ft 461 kts 113°
2026-04-30 00:14 28.25879 39.10503 28994 ft 459 kts 113°
2026-04-30 00:14 28.23745 39.17341 28993 ft 458 kts 113°
2026-04-30 00:15 28.21620 39.24130 28997 ft 456 kts 113°
2026-04-30 00:15 28.19511 39.30865 29000 ft 455 kts 113°
2026-04-30 00:16 28.17399 39.37626 28992 ft 454 kts 113°
2026-04-30 00:16 28.15305 39.44378 28998 ft 452 kts 114°
2026-04-30 00:17 28.13166 39.51083 28994 ft 451 kts 114°
2026-04-30 00:17 28.11049 39.57735 29003 ft 450 kts 113°
2026-04-30 00:18 28.08943 39.64429 29009 ft 450 kts 114°
2026-04-30 00:18 28.06826 39.71058 29007 ft 450 kts 114°
2026-04-30 00:19 28.04694 39.77728 29009 ft 450 kts 114°
2026-04-30 00:19 28.02577 39.84370 29006 ft 449 kts 114°
2026-04-30 00:20 28.00462 39.91029 29008 ft 449 kts 114°
2026-04-30 00:20 27.98343 39.97717 29025 ft 450 kts 114°
2026-04-30 00:21 27.96246 40.04340 28998 ft 450 kts 115°
2026-04-30 00:21 27.94093 40.10998 29009 ft 449 kts 115°
2026-04-30 00:22 27.91952 40.17642 29011 ft 450 kts 114°
2026-04-30 00:22 27.89839 40.24267 29011 ft 449 kts 115°
2026-04-30 00:23 27.87679 40.30902 29004 ft 449 kts 115°
2026-04-30 00:23 27.85517 40.37537 29007 ft 449 kts 115°
2026-04-30 00:24 27.83373 40.44113 29000 ft 449 kts 115°
2026-04-30 00:24 27.81244 40.50772 28994 ft 450 kts 115°
2026-04-30 00:25 27.79088 40.57450 28997 ft 455 kts 115°
2026-04-30 00:25 27.76900 40.64175 29000 ft 460 kts 115°
2026-04-30 00:26 27.74664 40.71021 29004 ft 466 kts 115°
2026-04-30 00:26 27.72409 40.77898 29009 ft 471 kts 115°
2026-04-30 00:27 27.70119 40.84868 29010 ft 475 kts 115°
2026-04-30 00:27 27.67820 40.91853 28996 ft 479 kts 115°
2026-04-30 00:28 27.65497 40.98937 29003 ft 482 kts 115°
2026-04-30 00:28 27.63179 41.06016 29004 ft 485 kts 115°
2026-04-30 00:29 27.60826 41.13193 28992 ft 487 kts 115°
2026-04-30 00:29 27.58485 41.20342 29008 ft 489 kts 115°
2026-04-30 00:30 27.56085 41.27559 29005 ft 491 kts 116°
2026-04-30 00:30 27.53698 41.34746 29003 ft 493 kts 115°
2026-04-30 00:31 27.51289 41.41997 28997 ft 494 kts 116°
2026-04-30 00:31 27.48854 41.49273 29004 ft 496 kts 115°
2026-04-30 00:32 27.46429 41.56563 28972 ft 497 kts 116°
2026-04-30 00:32 27.43980 41.63789 28978 ft 497 kts 116°
2026-04-30 00:33 27.41163 41.70899 29012 ft 493 kts 123°
2026-04-30 00:33 27.37787 41.77531 29008 ft 491 kts 127°
2026-04-30 00:34 27.34240 41.84106 29007 ft 491 kts 128°
2026-04-30 00:34 27.30690 41.90696 29003 ft 492 kts 127°
2026-04-30 00:35 27.27210 41.97284 29001 ft 492 kts 127°
2026-04-30 00:35 27.23751 42.03855 28973 ft 482 kts 128°
2026-04-30 00:36 27.20353 42.10273 28985 ft 473 kts 128°
2026-04-30 00:36 27.17014 42.16597 28987 ft 468 kts 128°
2026-04-30 00:37 27.13709 42.22809 28994 ft 463 kts 129°
2026-04-30 00:37 27.10388 42.28998 28988 ft 462 kts 129°
2026-04-30 00:38 27.07067 42.35200 28992 ft 464 kts 128°
2026-04-30 00:38 27.03749 42.41449 28973 ft 465 kts 129°
2026-04-30 00:39 27.00427 42.47643 28988 ft 465 kts 129°
2026-04-30 00:39 26.97090 42.53855 28984 ft 466 kts 129°
2026-04-30 00:40 26.93735 42.60097 28986 ft 466 kts 129°
2026-04-30 00:40 26.90413 42.66295 28981 ft 466 kts 129°
2026-04-30 00:41 26.87064 42.72556 28978 ft 467 kts 129°
2026-04-30 00:41 26.83744 42.78761 28977 ft 467 kts 129°
2026-04-30 00:42 26.80398 42.85010 28974 ft 467 kts 129°
2026-04-30 00:42 26.77051 42.91260 28976 ft 467 kts 129°
2026-04-30 00:43 26.73689 42.97444 28975 ft 467 kts 129°
2026-04-30 00:43 26.70329 43.03674 28960 ft 467 kts 129°
2026-04-30 00:44 26.66984 43.09813 28975 ft 466 kts 129°
2026-04-30 00:44 26.63616 43.16046 28972 ft 467 kts 129°
2026-04-30 00:45 26.60252 43.22222 28967 ft 466 kts 129°
2026-04-30 00:45 26.56874 43.28404 28961 ft 466 kts 129°
2026-04-30 00:46 26.54080 43.33569 28965 ft 466 kts 129°
2026-04-30 00:46 26.50153 43.40738 28963 ft 465 kts 129°
2026-04-30 00:47 26.47339 43.45871 28954 ft 465 kts 130°
2026-04-30 00:47 26.43963 43.52051 28949 ft 465 kts 129°
2026-04-30 00:48 26.40595 43.58224 28946 ft 465 kts 129°
2026-04-30 00:48 26.37246 43.64361 28922 ft 465 kts 130°
2026-04-30 00:49 26.33905 43.70515 28938 ft 465 kts 130°
2026-04-30 00:49 26.30517 43.76634 28940 ft 465 kts 130°
2026-04-30 00:50 26.27348 43.82997 28935 ft 469 kts 125°
2026-04-30 00:50 26.24422 43.89476 28940 ft 470 kts 124°
2026-04-30 00:51 26.21487 43.96024 28945 ft 470 kts 125°
2026-04-30 00:51 26.18525 44.02487 28946 ft 470 kts 126°
2026-04-30 00:52 26.15566 44.08945 28941 ft 469 kts 126°
2026-04-30 00:52 26.12553 44.15409 28940 ft 470 kts 126°
2026-04-30 00:53 26.09576 44.21896 28938 ft 470 kts 126°
2026-04-30 00:53 26.06586 44.28303 28940 ft 469 kts 126°
2026-04-30 00:54 26.03590 44.34759 28940 ft 470 kts 126°
2026-04-30 00:54 26.00583 44.41213 28937 ft 469 kts 126°
2026-04-30 00:55 25.97611 44.47647 28928 ft 469 kts 126°
2026-04-30 00:55 25.93088 44.57313 28923 ft 468 kts 126°
2026-04-30 00:56 25.90088 44.63744 28899 ft 468 kts 126°
2026-04-30 00:56 25.87127 44.70133 28916 ft 467 kts 126°
2026-04-30 00:57 25.84107 44.76530 28918 ft 466 kts 126°
2026-04-30 00:57 25.81091 44.82915 28918 ft 467 kts 126°
2026-04-30 00:58 25.78125 44.89281 28914 ft 466 kts 126°
2026-04-30 00:58 25.75113 44.95669 28906 ft 466 kts 126°
2026-04-30 00:59 25.72090 45.02048 28901 ft 465 kts 126°
2026-04-30 00:59 25.69091 45.08382 28888 ft 465 kts 126°
2026-04-30 01:00 25.66104 45.14698 28913 ft 464 kts 126°
2026-04-30 01:00 25.63115 45.21023 28911 ft 465 kts 126°
2026-04-30 01:01 25.60109 45.27395 28915 ft 465 kts 126°
2026-04-30 01:01 25.57129 45.33718 28918 ft 465 kts 126°
2026-04-30 01:02 25.55624 45.36906 28780 ft 469 kts 126°
2026-04-30 01:02 25.54100 45.40124 28571 ft 466 kts 126°
2026-04-30 01:02 25.52619 45.43258 28208 ft 461 kts 126°
2026-04-30 01:02 25.51138 45.46388 27794 ft 458 kts 126°
2026-04-30 01:03 25.49658 45.49506 27500 ft 455 kts 126°
2026-04-30 01:03 25.48191 45.52594 27243 ft 452 kts 126°
2026-04-30 01:03 25.46725 45.55669 26993 ft 450 kts 126°
2026-04-30 01:03 25.45259 45.58735 26688 ft 449 kts 126°
2026-04-30 01:04 25.43804 45.61760 26356 ft 446 kts 126°
2026-04-30 01:04 25.42341 45.64791 26023 ft 443 kts 126°
2026-04-30 01:04 25.40914 45.67752 25706 ft 441 kts 126°
2026-04-30 01:04 25.39489 45.70757 25379 ft 438 kts 125°
2026-04-30 01:05 25.38080 45.73743 25051 ft 436 kts 125°
2026-04-30 01:05 25.36672 45.76715 24740 ft 433 kts 126°
2026-04-30 01:05 25.35289 45.79665 24438 ft 431 kts 124°
2026-04-30 01:05 25.33988 45.82602 24068 ft 430 kts 123°
2026-04-30 01:06 25.32706 45.85584 23808 ft 428 kts 122°
2026-04-30 01:06 25.31456 45.88575 23547 ft 427 kts 121°
2026-04-30 01:06 25.30221 45.91555 23266 ft 425 kts 122°
2026-04-30 01:06 25.28976 45.94515 23005 ft 422 kts 122°
2026-04-30 01:07 25.27749 45.97404 22747 ft 419 kts 122°
2026-04-30 01:07 25.26512 46.00307 22513 ft 416 kts 122°
2026-04-30 01:07 25.25119 46.03077 22246 ft 402 kts 136°
2026-04-30 01:07 25.23160 46.05146 21751 ft 379 kts 155°
2026-04-30 01:08 25.20911 46.06560 21198 ft 368 kts 161°
2026-04-30 01:08 25.18639 46.07805 20661 ft 362 kts 163°
2026-04-30 01:08 25.16373 46.08980 20154 ft 358 kts 163°
2026-04-30 01:08 25.14125 46.10116 19639 ft 354 kts 164°
2026-04-30 01:09 25.11916 46.11220 19091 ft 350 kts 164°
2026-04-30 01:09 25.09700 46.12318 18539 ft 347 kts 164°
2026-04-30 01:09 25.07503 46.13400 17975 ft 343 kts 164°
2026-04-30 01:09 25.05331 46.14466 17385 ft 334 kts 164°
2026-04-30 01:10 25.03177 46.15518 16924 ft 338 kts 164°
2026-04-30 01:10 25.01025 46.16565 16723 ft 337 kts 164°
2026-04-30 01:10 24.98911 46.17592 16509 ft 336 kts 164°
2026-04-30 01:10 24.96788 46.18619 15969 ft 333 kts 164°
2026-04-30 01:11 24.94670 46.19640 15423 ft 331 kts 164°
2026-04-30 01:11 24.92567 46.20651 14893 ft 328 kts 164°
2026-04-30 01:11 24.90505 46.21787 14367 ft 332 kts 157°
2026-04-30 01:11 24.88575 46.23143 13884 ft 332 kts 154°
2026-04-30 01:12 24.86658 46.24575 13373 ft 331 kts 152°
2026-04-30 01:12 24.84858 46.26171 12886 ft 332 kts 146°
2026-04-30 01:12 24.83290 46.28014 12408 ft 338 kts 130°
2026-04-30 01:12 24.81886 46.30076 11974 ft 330 kts 136°
2026-04-30 01:13 24.80211 46.31725 11542 ft 319 kts 149°
2026-04-30 01:13 24.78400 46.33064 11136 ft 314 kts 152°
2026-04-30 01:13 24.76550 46.34328 10713 ft 311 kts 152°
2026-04-30 01:13 24.74691 46.35543 10291 ft 309 kts 153°
2026-04-30 01:14 24.72834 46.36715 9891 ft 306 kts 153°
2026-04-30 01:14 24.70993 46.37846 9542 ft 300 kts 153°
2026-04-30 01:14 24.69183 46.38938 9111 ft 298 kts 153°
2026-04-30 01:14 24.67351 46.40024 8617 ft 299 kts 153°
2026-04-30 01:15 24.65509 46.41091 8198 ft 297 kts 153°
2026-04-30 01:15 24.63674 46.42140 7899 ft 289 kts 153°
2026-04-30 01:15 24.61910 46.43138 7175 ft 289 kts 153°
2026-04-30 01:15 24.60143 46.44109 6575 ft 287 kts 153°
2026-04-30 01:16 24.58348 46.45060 5926 ft 286 kts 153°
2026-04-30 01:16 24.56541 46.45993 5031 ft 289 kts 153°
2026-04-30 01:16 24.54743 46.46889 4324 ft 276 kts 153°
2026-04-30 01:16 24.53146 46.47651 4533 ft 224 kts 153°
2026-04-30 01:17 24.51805 46.48285 4360 ft 206 kts 154°
2026-04-30 01:17 24.50526 46.48891 4113 ft 196 kts 154°
2026-04-30 01:17 24.49439 46.49714 3859 ft 186 kts 122°
2026-04-30 01:17 24.49117 46.51007 3627 ft 179 kts 81°
2026-04-30 01:18 24.49711 46.52173 3528 ft 178 kts 41°
2026-04-30 01:18 24.50736 46.52900 3529 ft 171 kts 32°
2026-04-30 01:18 24.51780 46.53517 3510 ft 170 kts 32°
2026-04-30 01:18 24.52827 46.54112 3509 ft 169 kts 31°
2026-04-30 01:19 24.53856 46.54673 3531 ft 162 kts 31°
2026-04-30 01:19 24.54827 46.55198 3542 ft 148 kts 28°
2026-04-30 01:19 24.55683 46.55714 3501 ft 131 kts 52°
2026-04-30 01:19 24.56106 46.56469 3410 ft 106 kts 68°
2026-04-30 01:20 24.56439 46.57229 2999 ft 120 kts 69°
2026-04-30 01:20 24.56771 46.58046 2742 ft 114 kts 68°
2026-04-30 01:20 24.57106 46.58836 2557 ft 109 kts 67°
2026-04-30 01:20 24.57392 46.59557 2637 ft 102 kts 67°
2026-04-30 01:21 24.57672 46.60275 2690 ft 100 kts 66°
2026-04-30 01:21 24.57952 46.60972 2731 ft 100 kts 70°
2026-04-30 01:21 24.58226 46.61649 2769 ft 98 kts 69°
2026-04-30 01:21 24.58551 46.62358 2757 ft 108 kts 49°
2026-04-30 01:22 24.59092 46.62985 2742 ft 123 kts 48°
2026-04-30 01:22 24.59783 46.63582 2858 ft 122 kts 39°
2026-04-30 01:22 24.60459 46.64062 3097 ft 114 kts 36°
2026-04-30 01:22 24.61142 46.64517 3283 ft 115 kts 36°
2026-04-30 01:23 24.61729 46.65090 3340 ft 119 kts 70°
2026-04-30 01:23 24.61916 46.65987 3492 ft 111 kts 81°
2026-04-30 01:23 24.62038 46.66829 3654 ft 114 kts 82°
2026-04-30 01:23 24.62397 46.67593 3676 ft 127 kts 35°
2026-04-30 01:24 24.63284 46.67742 3800 ft 119 kts
2026-04-30 01:24 24.63936 46.68224 3600 ft 137 kts 66°
2026-04-30 01:24 24.64192 46.69358 3031 ft 155 kts 80°
2026-04-30 01:24 24.64324 46.70433 3268 ft 128 kts 82°
2026-04-30 01:25 24.64435 46.71356 3543 ft 119 kts 83°
2026-04-30 01:25 24.64545 46.72229 3883 ft 113 kts 83°
2026-04-30 01:25 24.64656 46.73089 4150 ft 113 kts 83°
2026-04-30 01:25 24.64777 46.74029 4157 ft 134 kts 83°
2026-04-30 01:26 24.64683 46.75068 4169 ft 145 kts 120°
2026-04-30 01:26 24.63826 46.75662 4229 ft 155 kts 168°
2026-04-30 01:26 24.62759 46.75766 4328 ft 156 kts 172°
2026-04-30 01:26 24.61675 46.75802 4408 ft 156 kts 174°
2026-04-30 01:27 24.60587 46.75637 4443 ft 161 kts 191°
2026-04-30 01:27 24.59528 46.75740 4402 ft 152 kts 144°
2026-04-30 01:27 24.58977 46.76647 4372 ft 143 kts 95°
2026-04-30 01:27 24.58990 46.77714 4398 ft 138 kts 85°
2026-04-30 01:28 24.59128 46.78749 4420 ft 137 kts 81°
2026-04-30 01:28 24.59304 46.79768 4441 ft 137 kts 79°
2026-04-30 01:28 24.59498 46.80796 4414 ft 137 kts 79°
2026-04-30 01:28 24.59941 46.81715 4377 ft 140 kts 49°
2026-04-30 01:29 24.60617 46.82493 4339 ft 140 kts 48°
2026-04-30 01:29 24.61286 46.83241 4347 ft 137 kts 49°
2026-04-30 01:29 24.61972 46.83985 4302 ft 140 kts 48°
2026-04-30 01:29 24.62668 46.84743 4282 ft 142 kts 48°
2026-04-30 01:30 24.63372 46.85499 4244 ft 141 kts 47°
2026-04-30 01:30 24.64114 46.86190 4202 ft 147 kts 29°
2026-04-30 01:30 24.65149 46.86164 4157 ft 158 kts 338°
2026-04-30 01:30 24.66105 46.85574 4202 ft 156 kts 333°
2026-04-30 01:31 24.67026 46.84949 4226 ft 156 kts 332°
2026-04-30 01:31 24.67942 46.84300 4235 ft 156 kts 330°
2026-04-30 01:31 24.68845 46.83662 4229 ft 156 kts 331°
2026-04-30 01:31 24.69757 46.83013 4208 ft 155 kts 330°
2026-04-30 01:32 24.70668 46.82368 4187 ft 155 kts 331°
2026-04-30 01:32 24.71578 46.81724 4170 ft 156 kts 331°
2026-04-30 01:32 24.72485 46.81092 4178 ft 156 kts 333°
2026-04-30 01:32 24.73408 46.80459 4193 ft 156 kts 332°
2026-04-30 01:33 24.74322 46.79840 4189 ft 153 kts 333°
2026-04-30 01:33 24.74924 46.79438 4166 ft 152 kts 333°
2026-04-30 01:33 24.75838 46.78840 4128 ft 152 kts 333°
2026-04-30 01:33 24.77052 46.78073 4087 ft 151 kts 334°
2026-04-30 01:34 24.77968 46.77505 4057 ft 151 kts 334°
2026-04-30 01:34 24.78579 46.77132 4038 ft 151 kts 334°
2026-04-30 01:34 24.79502 46.76589 4016 ft 150 kts 335°
2026-04-30 01:34 24.80734 46.75880 3982 ft 148 kts 340°
2026-04-30 01:35 24.81382 46.75681 3930 ft 144 kts 351°
2026-04-30 01:35 24.82358 46.75379 3816 ft 146 kts 345°
2026-04-30 01:35 24.83310 46.74996 3691 ft 149 kts 342°
2026-04-30 01:35 24.84283 46.74567 3533 ft 151 kts 343°
2026-04-30 01:36 24.85248 46.74141 3482 ft 150 kts 343°
2026-04-30 01:36 24.86209 46.73701 3377 ft 143 kts 341°
2026-04-30 01:36 24.87049 46.73266 3248 ft 128 kts 338°
2026-04-30 01:36 24.87824 46.72836 3077 ft 122 kts 341°
2026-04-30 01:37 24.88610 46.72507 2915 ft 123 kts 342°
2026-04-30 01:37 24.89406 46.72179 2881 ft 123 kts 342°
2026-04-30 01:37 24.90209 46.71873 2863 ft 122 kts 338°
2026-04-30 01:37 24.90974 46.71406 2741 ft 129 kts 328°
2026-04-30 01:38 24.91726 46.70868 2622 ft 128 kts 331°
2026-04-30 01:38 24.92471 46.70371 2461 ft 122 kts 336°
2026-04-30 01:38 24.93177 46.69944 2317 ft 104 kts 339°
2026-04-30 01:38 24.93774 46.69598 2036 ft 105 kts 333°
2026-04-30 01:39 24.94412 46.69186 2036 ft 99 kts 332°
2026-04-30 01:39 24.94917 46.68874 2032 ft 65 kts 332°
2026-04-30 01:39 24.95284 46.68674 2030 ft 53 kts 351°
2026-04-30 01:39 24.95537 46.68799 2032 ft 30 kts 35°
2026-04-30 01:40 24.95640 46.68755 2033 ft 14 kts 327°
2026-04-30 01:40 24.95722 46.68700 2030 ft 13 kts 329°